Powrót do katalogu

STARLINK-33648

AktywnyŁącznośćVLEO
NORAD 63371·PAYLOAD·🇺🇸 United States

Wystrzelony Mar 26, 2025 z Vandenberg Space Force Base

Loading…

Następne Przeloty (najbliższe 24 godziny)

TLE

ŚwieżeSource: CelesTrak SupGP

Epoka: Sep 14, 2026, 22:26 UTC

1 63371C 25063J   26257.93520833  .00037780  00000+0  12148-2 0  2570
2 63371  53.1590 252.5130 0001419  92.0682  22.9489 15.31684999    15

Śledź STARLINK-33648 w czasie rzeczywistym z AllMySat

Download on the App Store